Time,TemperatureF,DewpointF,PressureIn,WindDirection,WindDirectionDegrees,WindSpeedMPH,WindSpeedGustMPH,Humidity,HourlyPrecipIn,Conditions,Clouds,dailyrainin,SolarRadiationWatts/m^2,SoftwareType,DateUTC
2013-02-26 00:11:00,26.0,23.0,-100.00,South,177,5.0,7.0,87,-99.99,,,0.00,0.120000,,2013-02-26 08:11:00,
2013-02-26 01:11:00,25.0,21.0,-100.00,SE,140,6.0,8.0,85,-99.99,,,0.00,0.120000,,2013-02-26 09:11:00,
2013-02-26 02:11:00,24.0,20.0,-100.00,SSE,149,5.0,6.0,85,-99.99,,,0.00,0.120000,,2013-02-26 10:11:00,
2013-02-26 03:11:00,24.0,20.0,-100.00,SSE,155,6.0,9.0,83,-99.99,,,0.00,0.000000,,2013-02-26 11:11:00,
2013-02-26 04:11:00,23.0,19.0,-100.00,SSE,152,5.0,7.0,83,-99.99,,,0.00,0.000000,,2013-02-26 12:11:00,
2013-02-26 05:11:00,24.0,19.0,-100.00,SE,143,5.0,7.0,81,-99.99,,,0.00,0.000000,,2013-02-26 13:11:00,
2013-02-26 06:11:00,23.0,19.0,-100.00,SE,145,5.0,8.0,81,-99.99,,,0.00,0.000000,,2013-02-26 14:11:00,
2013-02-26 07:11:00,25.0,20.0,-100.00,South,178,6.0,8.0,81,-99.99,,,0.00,0.000000,,2013-02-26 15:11:00,
2013-02-26 08:11:00,23.0,18.0,-100.00,SW,217,3.0,4.0,80,-99.99,,,0.00,32.080002,,2013-02-26 16:11:00,
2013-02-26 09:11:00,29.0,22.0,-100.00,WSW,238,4.0,5.0,74,-99.99,,,0.00,223.960007,,2013-02-26 17:11:00,
2013-02-26 10:12:00,32.0,23.0,-100.00,West,273,5.0,8.0,68,-99.99,,,0.00,383.989990,,2013-02-26 18:12:00,
2013-02-26 12:11:00,43.0,20.0,-100.00,SSW,203,8.0,13.0,38,-99.99,,,0.00,640.599976,,2013-02-26 20:11:00,
2013-02-26 14:11:00,46.0,13.0,-100.00,SSW,211,7.0,11.0,26,-99.99,,,0.00,517.059998,,2013-02-26 22:11:00,
2013-02-26 15:11:00,48.0,9.0,-100.00,SSW,198,6.0,12.0,20,-99.99,,,0.00,421.649994,,2013-02-26 23:11:00,
2013-02-26 16:11:00,49.0,8.0,-100.00,SSW,195,5.0,9.0,18,-99.99,,,0.00,316.000000,,2013-02-27 00:11:00,
2013-02-26 17:11:00,48.0,7.0,-100.00,SSW,194,3.0,5.0,18,-99.99,,,0.00,103.550003,,2013-02-27 01:11:00,
2013-02-26 18:13:00,46.0,10.0,-100.00,SSW,193,1.0,2.0,22,-99.99,,,0.00,43.000000,,2013-02-27 02:13:00,
2013-02-26 19:11:00,41.0,17.0,-100.00,ENE,75,3.0,4.0,38,-99.99,,,0.00,0.120000,,2013-02-27 03:11:00,
2013-02-26 20:11:00,40.0,18.0,-100.00,East,97,3.0,4.0,40,-99.99,,,0.00,0.000000,,2013-02-27 04:11:00,
2013-02-26 21:11:00,40.0,18.0,-100.00,North,354,2.0,3.0,41,-99.99,,,-99.99,0.000000,,2013-02-27 05:11:00,
2013-02-26 22:11:00,37.0,21.0,-100.00,SE,124,4.0,6.0,50,-99.99,,,0.00,0.000000,,2013-02-27 06:11:00,
2013-02-26 23:12:00,38.0,19.0,-100.00,South,188,1.0,3.0,46,-99.99,,,0.00,0.120000,,2013-02-27 07:12:00,